MDT,Max TemperatureF,Mean TemperatureF,Min TemperatureF,Max Dew PointF,MeanDew PointF,Min DewpointF,Max Humidity, Mean Humidity, Min Humidity, Max Sea Level PressureIn, Mean Sea Level PressureIn, Min Sea Level PressureIn, Max VisibilityMiles, Mean VisibilityMiles, Min VisibilityMiles, Max Wind SpeedMPH, Mean Wind SpeedMPH, Max Gust SpeedMPH,PrecipitationIn, CloudCover, Events, WindDirDegrees
2012-10-1,77,59,41,59,48,41,100,78,34,30.29,30.20,30.14,,,,21,4,29,0.00,1,,316
2012-10-2,60,50,39,55,46,37,100,78,55,30.22,30.20,30.17,,,,20,8,24,0.00,2,,283
2012-10-3,73,52,32,39,29,19,100,53,13,30.21,30.18,30.13,,,,18,5,29,0.00,0,,72
2012-10-4,77,57,37,37,30,21,87,46,12,30.16,30.14,30.12,,,,13,3,18,0.00,0,,95
2012-10-5,75,56,37,45,34,18,93,58,12,30.16,30.14,30.11,,,,18,3,23,0.00,0,,155
2012-10-6,78,55,32,43,27,12,100,53,9,30.17,30.10,30.01,,,,14,3,22,0.00,0,,69
2012-10-7,78,58,39,37,31,23,76,47,13,30.02,29.98,29.94,,,,12,4,,0.00,0,,165
2012-10-8,60,48,37,48,43,34,100,78,59,30.08,30.02,29.96,,,,12,2,,0.00,4,,292
2012-10-9,62,52,42,48,46,41,93,78,59,30.12,30.08,30.04,,,,10,2,,0.00,5,,357
2012-10-10,59,50,39,54,45,37,100,91,63,30.06,30.02,29.96,,,,8,1,,0.00,7,,220
2012-10-11,57,46,35,54,44,36,100,92,72,29.97,29.93,29.84,,,,7,1,,0.00,8,,306
2012-10-12,55,53,51,55,52,48,100,94,82,30.06,29.95,29.89,,,,9,1,,1.83,8,,148
2012-10-13,60,58,55,61,57,55,100,95,88,30.23,30.18,30.07,,,,12,4,,0.10,8,,172
2012-10-14,62,60,59,63,60,59,100,97,88,30.17,30.06,29.94,,,,18,4,24,1.31,8,,181
2012-10-15,66,62,57,66,60,57,100,99,94,29.97,29.86,29.70,,,,24,8,40,1.23,8,,190
2012-10-16,62,54,46,61,52,46,100,87,55,30.32,30.09,29.73,10,10,10,14,6,22,0.06,7,,253
2012-10-17,62,52,41,52,45,41,100,88,48,30.34,30.26,30.19,,,,9,2,,0.00,3,,126
2012-10-18,73,56,39,52,44,39,100,76,31,30.20,30.03,29.90,,,,10,3,,0.06,2,,150
2012-10-19,59,56,53,59,56,48,100,96,72,29.95,29.90,29.84,,,,14,5,18,0.59,8,,207
2012-10-20,55,50,44,52,46,43,100,89,72,30.00,29.95,29.90,,,,13,4,20,0.57,8,,158
2012-10-21,55,48,41,46,43,41,100,88,63,29.92,29.85,29.72,,,,12,3,22,0.42,5,,125
2012-10-22,53,48,42,48,44,41,100,92,72,29.72,29.61,29.55,,,,12,3,17,0.42,8,,173
2012-10-23,53,48,44,45,43,39,100,87,67,29.87,29.80,29.70,,,,17,4,26,1.34,7,,137
2012-10-24,51,45,39,48,44,39,100,92,71,30.17,29.95,29.83,10,8,2,14,3,16,1.05,8,Rain,134
2012-10-25,57,46,35,48,44,36,100,88,63,30.40,30.32,30.18,10,9,2,6,2,,0.06,3,Rain,149
2012-10-26,57,52,46,54,49,45,100,91,82,30.31,30.17,30.13,10,7,1,15,3,20,0.06,8,Rain,203
2012-10-27,60,55,50,61,55,50,100,100,94,30.14,30.00,29.88,10,4,1,23,5,33,0.87,8,Rain,194
2012-10-28,64,60,55,63,58,55,100,100,94,29.99,29.93,29.83,10,6,1,21,7,29,0.75,8,Rain,195
2012-10-29,62,60,57,63,59,55,100,97,88,30.07,29.98,29.82,10,5,2,21,11,34,0.98,8,Rain,202
2012-10-30,64,60,57,63,60,57,100,98,83,29.97,29.85,29.77,10,6,2,15,5,28,1.77,8,Rain,182
2012-10-31,60,58,55,59,57,54,100,96,77,29.77,29.68,29.62,10,7,3,17,3,24,1.19,8,Rain,147